Saint Cloud, MN

11:14 PM CST on February 13, 2016 (GMT -0600)
Saint Cloud Regional

Weather History for KSTC - August, 2013

Change the Weather History Date:

Thursday, August 29, 2013

  Actual Average Record
Temperature  
Mean Temperature 81 °F 65 °F  
Max Temperature 92 °F 77 °F 94 °F (1961)
Min Temperature 70 °F 54 °F 36 °F (1946)
Degree Days  
Heating Degree Days 0 2  
Month to date heating degree days 23 36  
Since 1 June heating degree days 136 131  
Since 1 July heating degree days 49 53  
Cooling Degree Days 16 3  
Month to date cooling degree days 159 121  
Year to date cooling degree days 486 423  
Since 1 June cooling degree days 475 398  
Growing Degree Days 30 (Base 50)    
Moisture  
Dew Point 69 °F    
Average Humidity 70    
Maximum Humidity 93    
Minimum Humidity 47    
Precipitation  
Precipitation 0.00 in 0.14 in 2.03 in (2014)
Month to date precipitation 0.67 3.52  
Year to date precipitation 20.15 19.31  
Snow  
Snow 0.00 in 0.00 in 0.00 in ()
Month to date snowfall 0.0 0.0  
Since 1 June snowfall 0.0 0.0  
Since 1 July snowfall 0.0 0.0  
Snow Depth 0.00 in    
Sea Level Pressure  
Sea Level Pressure 29.93 in    
Wind  
Wind Speed 8 mph (SSE)    
Max Wind Speed 20 mph    
Max Gust Speed 25 mph    
Visibility 10 miles    
Events      
T = Trace of Precipitation, MM = Missing Value Source: NWS Daily Summary

Daily Weather History Graph

Daily Weather History Graph

Search for Another Location

Airport or City:

Trip Planner

Search our weather history database for the weather conditions in past years. The results will help you decide how hot, cold, wet, or windy it might be!

Date:

Astronomy

Aug. 29, 2013 Rise Set
Actual Time 6:34 AM CDT 7:59 PM CDT
Civil Twilight 6:03 AM CDT 8:29 PM CDT
Nautical Twilight 5:25 AM CDT 9:06 PM CDT
Astronomical Twilight 4:46 AM CDT 9:46 PM CDT
Moon 12:17 AM CDT (8/29) 3:37 PM CDT (8/29)
Length of Visible Light 14h 26m
Length of Day
13h 24m
Last Quarter, 38% of the Moon is Illuminated
Aug 29
Last Quarter
Sep 5
New
Sep 12
First Quarter
Sep 19
Full
Sep 26
Last Quarter

Hourly Weather History & Observations

Time (CDT) Temp. Heat Index Dew Point Humidity Pressure Visibility Wind Dir Wind Speed Gust Speed Precip Events Conditions
12:53 AM 70.0 °F - 64.9 °F 84% 30.01 in 10.0 mi East 3.5 mph - N/A   Clear
1:53 AM 70.0 °F - 66.0 °F 87% 30.01 in 10.0 mi East 4.6 mph - N/A   Clear
2:53 AM 71.1 °F - 66.9 °F 87% 30.00 in 10.0 mi East 6.9 mph - N/A   Mostly Cloudy
3:28 AM 71.6 °F - 66.2 °F 83% 30.00 in 10.0 mi East 5.8 mph - N/A   Mostly Cloudy
3:53 AM 71.1 °F - 66.9 °F 87% 29.99 in 10.0 mi East 4.6 mph - N/A   Overcast
4:41 AM 71.6 °F - 68.0 °F 88% 29.97 in 10.0 mi East 5.8 mph - N/A   Overcast
4:53 AM 72.0 °F - 68.0 °F 87% 29.97 in 10.0 mi East 5.8 mph - N/A   Overcast
5:53 AM 73.0 °F - 69.1 °F 87% 29.98 in 9.0 mi ESE 6.9 mph - N/A   Overcast
6:53 AM 73.0 °F - 71.1 °F 93% 29.98 in 7.0 mi SSE 6.9 mph - N/A   Overcast
7:53 AM 75.0 °F - 72.0 °F 90% 29.97 in 6.0 mi SSE 5.8 mph - N/A   Overcast
8:53 AM 77.0 °F - 73.0 °F 88% 29.97 in 6.0 mi South 6.9 mph - N/A   Overcast
9:42 AM 80.6 °F 85.4 °F 73.4 °F 79% 29.96 in 8.0 mi South 6.9 mph - N/A   Partly Cloudy
9:53 AM 82.0 °F 87.4 °F 73.0 °F 74% 29.96 in 9.0 mi South 6.9 mph - N/A   Partly Cloudy
10:53 AM 84.9 °F 91.4 °F 73.0 °F 67% 29.95 in 10.0 mi SSE 9.2 mph - N/A   Clear
11:53 AM 88.0 °F 94.7 °F 72.0 °F 59% 29.96 in 10.0 mi South 6.9 mph - N/A   Clear
12:53 PM 89.1 °F 94.1 °F 70.0 °F 53% 29.94 in 10.0 mi SSW 9.2 mph - N/A   Partly Cloudy
1:53 PM 89.1 °F 93.7 °F 69.1 °F 52% 29.90 in 10.0 mi South 11.5 mph - N/A   Clear
2:53 PM 89.1 °F 93.7 °F 69.1 °F 52% 29.86 in 10.0 mi SSE 18.4 mph 24.2 mph N/A   Clear
3:53 PM 91.0 °F 96.6 °F 70.0 °F 50% 29.86 in 10.0 mi South 12.7 mph 21.9 mph N/A   Clear
3:56 PM 91.4 °F 96.8 °F 69.8 °F 49% 29.86 in 10.0 mi South 13.8 mph 21.9 mph N/A   Clear
4:53 PM 90.0 °F 92.8 °F 66.9 °F 46% 29.89 in 10.0 mi SSW 12.7 mph - N/A   Scattered Clouds
5:53 PM 90.0 °F 93.6 °F 68.0 °F 48% 29.87 in 10.0 mi SSW 13.8 mph - N/A   Partly Cloudy
6:53 PM 88.0 °F 90.3 °F 66.0 °F 48% 29.85 in 10.0 mi SSW 11.5 mph - N/A   Clear
7:53 PM 82.9 °F 85.4 °F 66.9 °F 58% 29.85 in 10.0 mi SSW 6.9 mph - N/A   Clear
8:53 PM 80.1 °F 82.7 °F 68.0 °F 67% 29.85 in 10.0 mi SSE 6.9 mph - N/A   Clear
9:53 PM 78.1 °F - 69.1 °F 74% 29.85 in 10.0 mi SE 5.8 mph - N/A   Mostly Cloudy
10:53 PM 78.1 °F - 69.1 °F 74% 29.85 in 10.0 mi South 4.6 mph - N/A   Mostly Cloudy
11:53 PM 78.1 °F - 68.0 °F 71% 29.85 in 10.0 mi SW 4.6 mph - N/A   Mostly Cloudy